Home > Weather > Bristol > Past weeks

Flag for USA Past Weather in Bristol, Tennessee, USA — Yesterday and Last 2 Weeks

Now
77 °F

Sunny.


Feels Like: 78 °F
Forecast: 62 / 85 °F
Wind: 3 mph from North

Location: Abingdon-Southwest Abingdon

Current Time: Jun 30, 2016 at 12:05:21 PM

Latest Report: Jun 30, 2016 at 11:15 AM


Visibility: 10 mi

Pressure: 30.08 "Hg (28.37 "Hg at 510m altitude)

Humidity: 60%

Dew Point: 62 °F

Location of BristolLocation

Past Weather in Bristol — Graph

°F

Bristol Temperature Yesterday

Maximum temperature yesterday: 82 °F (at 4:35 PM)
Minimum temperature yesterday: 64 °F (at 5:55 AM)
Average temperature yesterday: 73 °F

High & Low Weather Summary for the Past Weeks

 TemperatureHumidityPressure
High88 °F (Jun 26, 4:55 PM)100% (Jun 16, 1:55 AM)30.44 "Hg (Jun 16, 1:55 AM)
Low56 °F (Jun 20, 5:55 AM)21% (Jun 19, 3:15 PM)29.80 "Hg (Jun 16, 9:15 PM)
Average74 °F72%30.12 "Hg
* Reported Jun 15 10:15 AM — Jun 30 10:55 AM, Bristol, Weather by CustomWeather, © 2016

Note: Actual official high and low records may vary slightly from our data, if they occured in-between our weather recording intervals... More about our weather records

Advertising

Bristol Weather History for the Previous 24 Hours

Scroll right to see more
 ConditionsComfort  
Time TempWeatherWind HumidityBarometerVisibility
10:55 AM
Thu, Jun 30
76 °FSunny.No wind62%30.08 "Hg10 mi
10:15 AM75 °FSunny.5 mph64%30.08 "Hg10 mi
9:55 AM74 °FSunny.6 mph66%30.08 "Hg10 mi
9:15 AM72 °FSunny.9 mph68%30.09 "Hg10 mi
8:55 AM70 °FSunny.10 mph68%30.09 "Hg10 mi
8:35 AM70 °FSunny.12 mph69%30.08 "Hg10 mi
8:15 AM69 °FSunny.9 mph71%30.08 "Hg10 mi
7:55 AM68 °FSunny.7 mph76%30.08 "Hg10 mi
7:15 AM66 °FSunny.No wind79%30.07 "Hg10 mi
6:55 AM64 °FClear.3 mph83%30.07 "Hg10 mi
6:15 AM65 °FClear.5 mph80%30.07 "Hg10 mi
5:55 AM65 °FClear.6 mph79%30.07 "Hg10 mi
5:15 AM66 °FClear.5 mph77%30.06 "Hg10 mi
4:55 AM65 °FPassing clouds.8 mph80%30.06 "Hg10 mi
4:15 AM66 °FOvercast.7 mph76%30.07 "Hg10 mi
3:55 AM67 °FOvercast.6 mph77%30.07 "Hg10 mi
3:35 AM66 °FPassing clouds.6 mph77%30.07 "Hg10 mi
3:15 AM66 °FPassing clouds.5 mph77%30.07 "Hg10 mi
2:55 AM67 °FMostly cloudy.6 mph75%30.07 "Hg10 mi
2:35 AM67 °FOvercast.6 mph76%30.08 "Hg10 mi
2:15 AM66 °FPassing clouds.5 mph78%30.07 "Hg10 mi
1:55 AM65 °FClear.6 mph80%30.07 "Hg10 mi
1:35 AM67 °FClear.5 mph75%30.07 "Hg10 mi
1:15 AM67 °FClear.5 mph74%30.08 "Hg10 mi
12:55 AM68 °FClear.3 mph69%30.09 "Hg10 mi
12:35 AM68 °FPassing clouds.6 mph71%30.09 "Hg10 mi
12:15 AM68 °FPassing clouds.No wind71%30.09 "Hg10 mi
11:55 PM
Wed, Jun 29
68 °FClear.5 mph71%30.09 "Hg10 mi
11:35 PM68 °FClear.6 mph71%30.08 "Hg10 mi
11:15 PM69 °FClear.5 mph67%30.08 "Hg10 mi
10:55 PM69 °FClear.5 mph67%30.09 "Hg10 mi
10:35 PM68 °FClear.No wind73%30.08 "Hg10 mi
10:15 PM69 °FClear.No wind69%30.07 "Hg10 mi
9:55 PM71 °FClear.No wind61%30.06 "Hg10 mi
9:15 PM73 °FSunny.No wind57%30.06 "Hg10 mi
8:55 PM74 °FSunny.No wind56%30.06 "Hg10 mi
8:15 PM77 °FSunny.3 mph52%30.05 "Hg10 mi
7:55 PM78 °FSunny.6 mph50%30.05 "Hg10 mi
7:35 PM78 °FSunny.3 mph49%30.04 "Hg10 mi
7:15 PM79 °FSunny.3 mph49%30.03 "Hg10 mi
6:55 PM79 °FSunny.5 mph48%30.03 "Hg10 mi
6:15 PM80 °FSunny.7 mph47%30.02 "Hg10 mi
5:55 PM81 °FSunny.7 mph44%30.03 "Hg10 mi
5:35 PM81 °FSunny.5 mph45%30.03 "Hg10 mi
5:15 PM81 °FSunny.9 mph43%30.03 "Hg10 mi
4:55 PM82 °FScattered clouds.6 mph43%30.03 "Hg10 mi
4:35 PM82 °FSunny.6 mph42%30.03 "Hg10 mi
4:15 PM82 °FSunny.6 mph43%30.03 "Hg10 mi
3:55 PM81 °FScattered clouds.9 mph44%30.04 "Hg10 mi
3:35 PM81 °FScattered clouds.7 mph44%30.04 "Hg10 mi
3:15 PM81 °FScattered clouds.10 mph43%30.04 "Hg10 mi
2:55 PM81 °FScattered clouds.7 mph44%30.04 "Hg10 mi
2:35 PM81 °FScattered clouds.9 mph43%30.04 "Hg10 mi
2:15 PM82 °FSunny.9 mph40%30.04 "Hg10 mi
1:55 PM81 °FSunny.7 mph43%30.05 "Hg10 mi
1:35 PM81 °FScattered clouds.7 mph43%30.05 "Hg10 mi
1:15 PM80 °FScattered clouds.8 mph44%30.06 "Hg10 mi
12:55 PM79 °FScattered clouds.7 mph48%30.06 "Hg10 mi
12:35 PM78 °FPartly sunny.8 mph51%30.07 "Hg10 mi
12:15 PM78 °FBroken clouds.6 mph53%30.07 "Hg10 mi
Weather by CustomWeather, © 2016

See weather overviewHow to use our weather pages